Wind_Speed
21 23 25 26 30 33 37 39 39 39 39 40 39 37 38 39 37 36 35 34 33 32 32 31 31 31 32 33 33 33 32 32 31 31 31 30 30 30 32 32 33 33 34
20 22 24 26 27 29 33 36 36 38 39 40 39 37 37 38 38 37 36 34 33 33 32 32 31 32 32 33 34 35 35 34 33 33 32 32 33 32 32 33 34 34 35
17 20 23 24 25 28 31 32 33 34 36 38 38 38 36 37 38 36 35 34 33 33 33 34 34 33 33 34 35 35 36 35 35 34 34 34 34 35 35 34 35 36 36
14 18 21 21 23 26 29 30 31 32 33 35 36 35 35 36 37 36 34 32 32 32 34 34 35 35 34 34 35 36 37 37 37 37 37 38 37 37 37 37 37 38 38
11 15 19 21 23 25 27 28 30 32 33 33 33 34 33 35 36 37 35 33 33 33 34 34 35 36 36 35 35 35 37 37 37 38 39 39 39 39 38 39 39 40 39
9 13 16 20 22 24 25 26 26 28 30 31 30 31 31 33 34 35 36 35 35 35 34 35 35 36 37 38 38 38 38 38 39 39 40 40 40 40 40 39 40 40 41
9 12 16 18 21 22 22 24 25 26 27 28 29 29 29 30 32 32 34 35 35 35 36 35 35 36 37 38 39 39 39 39 40 41 41 42 43 42 42 42 42 42 42
8 11 14 16 18 20 21 23 25 26 28 28 29 29 28 29 30 31 33 33 34 34 36 36 36 37 37 39 40 40 40 41 41 42 43 44 44 45 44 44 44 44 44
7 9 11 13 16 19 19 22 24 26 28 29 30 30 29 30 31 32 32 32 32 33 34 35 37 38 38 39 40 41 41 41 42 42 43 44 45 46 47 47 46 46 46
7 7 10 12 15 17 19 21 23 26 28 30 31 32 33 32 32 33 34 34 34 34 35 34 36 38 39 40 41 41 41 42 42 43 44 45 47 48 49 49 48 48 49
7 8 9 12 15 17 20 21 23 25 27 30 31 32 32 34 34 34 35 36 36 36 37 38 38 39 40 40 41 42 43 44 45 46 47 48 49 50 50 50 50 51 52
10 10 11 13 15 17 19 22 24 26 28 30 33 33 34 35 36 36 36 37 38 39 40 40 39 39 40 41 42 43 44 45 46 47 48 49 50 51 51 52 52 53 54
13 13 14 15 17 19 21 23 25 28 30 31 33 35 35 36 38 39 38 39 40 40 41 41 41 41 42 42 44 45 46 47 47 48 48 49 50 51 52 53 53 54 55
15 15 16 17 19 21 23 25 27 28 31 32 33 35 37 37 38 40 41 41 41 41 42 43 44 44 45 45 45 46 47 48 48 48 49 50 51 51 52 52 53 54 54
17 18 19 21 22 23 25 27 28 29 30 32 33 34 37 37 39 40 41 43 43 43 44 44 45 45 46 47 47 48 48 49 49 51 51 51 51 51 52 52 53 53 54
19 20 21 23 24 25 26 28 29 31 32 32 34 35 36 38 40 41 42 43 43 44 45 46 46 46 47 47 48 49 50 50 51 51 51 51 51 52 52 52 53 54 54
24 24 24 25 26 26 28 29 31 32 32 33 35 36 37 39 41 42 42 43 44 45 46 46 47 47 48 49 49 50 51 51 51 52 52 52 52 52 52 53 53 54 55
27 28 28 29 29 29 30 31 33 34 35 36 37 37 39 40 41 42 43 44 45 47 47 48 49 49 50 51 51 52 53 53 53 53 53 53 53 54 54 54 55 55 56
30 30 30 31 31 32 33 33 34 35 37 38 39 39 41 42 43 44 45 46 47 48 49 50 51 51 52 52 53 53 53 53 52 52 53 53 54 54 55 56 56 56 56
33 33 33 34 34 34 35 36 36 37 38 39 40 41 42 44 45 46 47 48 49 49 50 51 51 51 52 52 53 53 53 52 52 52 53 54 54 55 56 56 56 55 55
35 36 36 36 36 37 37 38 38 39 40 41 41 42 44 45 46 47 48 48 49 50 50 51 51 52 52 52 52 52 53 52 52 53 53 54 55 55 55 55 55 54 55
38 38 38 38 38 38 39 39 40 40 41 42 43 43 44 45 46 47 47 48 49 50 50 50 51 51 51 51 52 52 53 53 53 53 54 54 54 55 55 54 54 54 54
39 39 39 39 39 40 40 41 41 41 41 42 42 43 44 45 46 47 48 48 48 49 50 50 50 50 50 50 51 51 52 52 53 53 54 54 54 54 54 53 53 54 53
39 39 40 40 40 40 40 41 41 41 42 42 43 44 44 45 46 47 47 47 47 48 48 49 49 49 49 49 50 51 51 52 52 53 53 53 52 52 52 52 52 52 52
40 40 41 41 41 41 41 42 42 42 42 43 43 44 44 45 46 46 46 46 46 47 48 48 49 49 49 49 50 50 50 51 51 51 51 51 51 50 50 50 50 51 51
41 41 42 42 43 43 42 42 43 43 43 43 43 44 44 45 45 45 46 47 47 47 47 48 49 48 49 49 49 49 50 50 50 51 50 50 49 49 49 49 49 49 49
Wind_Direction
229 225 222 218 216 214 215 217 219 219 219 218 219 219 221 221 223 225 227 229 233 235 238 240 241 243 246 248 251 254 258 261 262 265 269 272 273 275 276 276 278 279 280
233 227 224 219 216 214 215 216 219 221 222 222 221 222 224 224 224 225 228 232 236 238 241 244 246 248 250 251 253 256 259 262 263 265 269 272 273 274 277 278 279 279 279
236 228 225 222 219 217 216 217 217 220 221 222 223 224 225 226 226 228 232 235 239 242 245 247 250 252 255 256 257 259 260 262 264 265 268 271 273 275 276 277 278 278 279
237 228 227 220 218 217 214 217 219 223 222 223 224 225 228 225 228 231 233 236 238 241 247 249 252 255 257 260 261 262 262 263 265 267 269 271 273 275 276 277 278 278 279
242 231 228 222 216 217 217 216 220 223 223 222 224 227 229 229 231 233 233 235 237 241 246 250 253 256 258 260 262 263 264 264 266 268 270 272 273 275 276 277 277 278 279
245 231 227 223 221 221 219 219 219 223 225 224 225 227 229 230 233 235 237 239 241 245 248 251 253 256 259 262 263 264 266 266 267 269 271 272 273 275 276 277 278 278 278
243 228 223 221 219 219 218 219 221 226 226 227 229 230 233 233 235 238 241 243 245 249 251 252 255 257 261 263 264 264 267 268 270 270 271 273 273 274 276 278 279 278 278
258 236 229 226 220 219 220 222 224 226 227 229 231 232 233 234 236 241 244 245 248 251 252 254 257 259 261 262 264 266 267 269 270 272 272 273 274 275 276 278 278 278 278
265 238 232 233 230 225 228 228 227 229 230 232 234 236 236 238 240 244 246 249 253 254 254 256 258 260 262 264 264 265 267 270 272 273 274 274 275 276 277 278 278 278 278
280 256 243 239 238 235 235 234 236 236 235 236 238 240 241 242 245 247 249 252 254 257 258 259 261 262 263 265 265 267 269 271 273 274 275 275 276 277 278 278 278 279 280
282 269 256 249 245 244 245 246 245 245 243 241 242 244 245 245 248 250 253 254 257 259 260 262 264 265 265 265 267 270 272 273 275 275 276 277 277 277 277 278 278 279 280
281 270 260 254 251 248 250 254 254 252 250 248 247 248 248 250 251 252 255 257 260 261 262 265 266 266 267 268 270 272 273 274 276 277 278 278 278 278 278 278 279 279 280
281 274 267 259 256 255 256 258 258 257 257 256 255 253 252 254 255 256 258 259 261 262 263 264 265 266 268 270 271 272 274 275 276 277 278 278 278 278 278 279 279 280 280
283 276 271 265 262 259 260 261 261 262 262 261 261 259 257 259 260 260 260 261 262 263 263 264 266 267 269 271 272 273 274 275 276 277 278 278 278 278 279 279 280 280 280
285 280 276 272 269 265 263 261 261 263 264 264 265 263 260 261 261 261 262 263 264 264 265 267 268 269 270 272 273 274 275 276 276 277 278 278 279 279 279 280 280 280 280
283 279 277 275 273 271 267 265 263 263 265 265 266 265 262 262 263 264 264 265 265 266 267 268 269 270 272 273 275 276 276 276 277 277 277 278 279 280 280 280 281 281 281
282 281 280 278 277 274 272 269 268 266 266 266 267 265 264 265 265 266 266 265 266 267 268 269 271 272 273 274 275 275 276 277 277 277 278 278 279 280 280 280 281 282 283
281 281 281 279 278 277 275 274 273 270 268 268 268 268 269 267 266 266 266 267 267 269 270 271 271 272 273 274 275 276 276 276 277 278 278 279 279 280 280 280 281 282 283
282 282 281 279 278 277 277 277 276 274 271 270 271 271 271 270 269 268 268 269 269 269 270 271 272 272 273 274 275 275 276 276 277 278 279 280 281 281 282 282 282 282 283
281 281 281 280 279 278 278 278 277 276 274 274 274 273 272 271 270 269 269 269 269 270 271 271 271 273 274 274 275 276 276 277 278 279 279 280 280 281 282 282 283 283 283
280 281 281 281 280 279 279 278 277 277 276 275 275 274 274 272 271 271 271 271 270 271 272 272 272 273 274 275 276 276 277 278 278 279 279 280 281 281 282 282 282 282 282
281 281 281 281 280 280 280 280 279 279 278 277 277 276 275 274 273 273 273 273 273 272 272 272 273 274 274 275 276 277 278 278 279 279 280 281 281 281 282 282 282 282 283
281 281 281 281 281 281 281 280 279 279 279 279 278 278 277 277 275 274 274 275 274 274 273 273 274 274 275 276 277 278 279 279 279 280 280 281 281 281 281 282 282 283 283
280 280 280 280 281 281 281 280 279 278 278 278 278 278 278 277 277 276 276 276 276 276 276 275 275 275 276 277 278 278 279 279 280 281 281 282 282 281 282 282 282 282 283
279 279 280 280 281 281 281 281 280 279 279 279 279 279 279 278 278 278 278 277 277 277 277 277 276 276 276 277 278 279 279 280 281 281 282 282 281 281 281 281 282 283 283
279 280 281 281 281 281 281 281 280 280 280 280 280 280 280 279 278 278 277 277 278 278 277 277 277 277 278 278 278 279 279 280 281 281 281 281 280 280 281 282 283 283 284
Height
5682 5684 5687 5691 5696 5700 5706 5711 5717 5722 5728 5733 5738 5743 5748 5753 5758 5763 5767 5771 5774 5777 5780 5782 5784 5786 5788 5790 5791 5793 5793 5794 5795 5795 5795 5795 5795 5794 5793 5792 5791 5790 5789
5679 5681 5683 5686 5691 5696 5701 5706 5711 5717 5722 5728 5733 5739 5744 5748 5752 5757 5761 5764 5768 5771 5774 5776 5778 5780 5782 5783 5785 5786 5787 5787 5788 5788 5788 5788 5788 5786 5785 5784 5783 5782 5781
5677 5678 5680 5683 5688 5692 5697 5702 5707 5712 5717 5723 5728 5734 5738 5742 5747 5751 5755 5758 5762 5765 5767 5770 5772 5773 5775 5777 5777 5778 5779 5780 5780 5780 5780 5780 5780 5779 5778 5776 5775 5774 5773
5675 5676 5678 5681 5685 5689 5693 5698 5703 5708 5713 5718 5723 5729 5733 5737 5741 5745 5748 5752 5755 5758 5761 5763 5765 5767 5768 5769 5770 5771 5772 5772 5772 5772 5772 5772 5771 5770 5769 5768 5766 5765 5764
5674 5675 5677 5679 5682 5686 5690 5695 5700 5705 5710 5714 5719 5723 5727 5731 5735 5738 5742 5745 5748 5751 5753 5755 5757 5759 5760 5762 5762 5763 5763 5764 5763 5764 5763 5762 5762 5761 5760 5759 5758 5756 5755
5673 5674 5676 5678 5680 5684 5688 5693 5697 5702 5706 5710 5714 5719 5722 5725 5729 5732 5735 5739 5742 5744 5746 5747 5749 5751 5752 5753 5754 5755 5755 5755 5755 5755 5754 5753 5752 5751 5750 5749 5748 5747 5745
5672 5673 5675 5677 5679 5682 5685 5689 5693 5698 5702 5706 5709 5713 5716 5719 5722 5726 5729 5732 5735 5736 5738 5739 5741 5742 5743 5744 5745 5745 5745 5746 5745 5745 5744 5743 5743 5741 5740 5739 5737 5736 5735
5671 5672 5673 5675 5677 5679 5682 5686 5690 5694 5697 5701 5705 5708 5711 5714 5717 5720 5723 5725 5727 5729 5730 5731 5732 5733 5734 5735 5736 5736 5736 5736 5735 5735 5734 5733 5732 5731 5730 5728 5727 5725 5724
5670 5671 5672 5673 5675 5677 5679 5682 5686 5689 5693 5696 5699 5702 5705 5708 5711 5713 5716 5718 5720 5721 5722 5723 5724 5724 5725 5726 5726 5726 5726 5725 5725 5724 5723 5722 5721 5720 5718 5716 5715 5714 5712
5669 5669 5670 5671 5673 5675 5677 5680 5683 5685 5688 5691 5694 5696 5699 5702 5704 5707 5709 5710 5712 5713 5714 5714 5715 5715 5715 5715 5716 5716 5715 5715 5714 5713 5712 5711 5709 5708 5706 5705 5703 5701 5699
5667 5667 5668 5670 5671 5672 5674 5677 5679 5681 5683 5685 5687 5690 5692 5695 5697 5699 5701 5702 5703 5704 5705 5705 5705 5705 5705 5705 5705 5704 5704 5703 5702 5701 5700 5698 5697 5695 5693 5692 5690 5688 5686
5665 5665 5665 5666 5668 5669 5671 5672 5674 5675 5677 5679 5681 5683 5685 5687 5688 5690 5692 5693 5694 5695 5695 5695 5695 5695 5695 5695 5694 5694 5693 5691 5690 5689 5687 5686 5684 5682 5680 5678 5676 5674 5672
5663 5662 5662 5663 5664 5665 5666 5667 5668 5669 5670 5672 5673 5674 5676 5678 5679 5681 5682 5683 5684 5684 5685 5685 5684 5684 5684 5683 5682 5682 5680 5679 5677 5676 5674 5672 5671 5669 5666 5664 5662 5660 5657
5659 5659 5659 5659 5659 5659 5660 5660 5661 5662 5663 5664 5664 5665 5667 5668 5669 5671 5672 5672 5673 5673 5673 5673 5673 5672 5672 5671 5670 5669 5668 5666 5665 5663 5661 5659 5657 5655 5652 5650 5648 5645 5643
5655 5654 5653 5653 5653 5653 5653 5653 5654 5654 5654 5655 5656 5656 5657 5658 5659 5659 5660 5661 5661 5661 5661 5661 5661 5660 5659 5658 5657 5656 5654 5653 5651 5649 5647 5645 5643 5641 5639 5636 5633 5631 5628
5649 5648 5647 5646 5646 5645 5645 5645 5645 5646 5646 5646 5646 5647 5647 5647 5648 5648 5648 5649 5649 5649 5649 5648 5648 5647 5646 5645 5644 5642 5641 5639 5637 5635 5633 5631 5629 5627 5624 5622 5619 5616 5614
5642 5641 5640 5639 5638 5637 5636 5636 5636 5636 5636 5636 5636 5636 5636 5636 5636 5636 5636 5636 5636 5636 5636 5635 5634 5634 5633 5632 5630 5628 5627 5625 5623 5621 5619 5617 5614 5612 5610 5607 5605 5602 5599
5634 5633 5632 5631 5630 5629 5627 5627 5626 5626 5625 5625 5625 5625 5624 5624 5624 5624 5624 5623 5623 5623 5622 5621 5621 5620 5619 5618 5616 5614 5612 5610 5608 5606 5604 5602 5600 5597 5595 5593 5590 5587 5584
5626 5624 5623 5622 5620 5619 5618 5617 5616 5615 5614 5614 5613 5612 5612 5612 5611 5611 5611 5610 5609 5609 5608 5607 5606 5605 5604 5603 5601 5599 5597 5596 5594 5591 5589 5587 5585 5582 5580 5577 5575 5572 5569
5616 5615 5613 5612 5610 5609 5607 5606 5605 5604 5603 5602 5601 5600 5599 5598 5598 5597 5597 5596 5595 5595 5594 5593 5592 5591 5589 5588 5586 5584 5582 5581 5579 5577 5574 5572 5569 5566 5563 5561 5558 5556 5553
5605 5604 5602 5601 5599 5597 5596 5595 5593 5592 5591 5589 5588 5587 5586 5584 5583 5583 5582 5581 5580 5580 5579 5578 5577 5576 5574 5573 5571 5569 5567 5566 5564 5562 5560 5557 5554 5551 5548 5545 5542 5539 5536
5594 5592 5590 5589 5587 5585 5584 5582 5581 5579 5577 5576 5575 5573 5571 5570 5569 5568 5567 5566 5565 5564 5563 5563 5562 5560 5559 5558 5556 5554 5552 5550 5548 5547 5544 5541 5538 5535 5532 5529 5526 5523 5520
5582 5580 5579 5577 5575 5573 5571 5569 5568 5566 5564 5563 5561 5559 5558 5556 5554 5553 5552 5551 5550 5549 5548 5547 5547 5545 5544 5542 5540 5539 5537 5534 5532 5530 5528 5525 5522 5519 5516 5514 5510 5507 5504
5569 5567 5566 5564 5563 5561 5558 5556 5554 5553 5551 5549 5548 5546 5544 5542 5540 5539 5538 5537 5535 5534 5533 5532 5531 5530 5529 5527 5525 5523 5521 5519 5516 5514 5512 5509 5506 5504 5501 5498 5495 5492 5489
5556 5554 5553 5551 5550 5548 5545 5543 5541 5539 5538 5536 5534 5532 5529 5527 5526 5524 5523 5522 5521 5519 5518 5517 5516 5515 5514 5512 5510 5507 5506 5503 5501 5498 5496 5494 5491 5489 5486 5483 5481 5478 5475
5543 5541 5539 5538 5536 5534 5532 5530 5528 5526 5524 5522 5520 5518 5516 5514 5512 5511 5509 5508 5507 5505 5503 5502 5501 5500 5498 5497 5495 5492 5490 5488 5486 5484 5482 5479 5477 5474 5472 5469 5467 5464 5461